sat.trackr.live / text

‹ back to catalog

SJ-11-07

NORAD 40261 · 2014-059A

PAYLOAD ACTIVE UNKNOWN

§ Identity

Operator
Country
PRC
Launch date
2014-09-28
Launch site
JSC
Launch vehicle
Mass (kg)
RCS (m²)
2.26

External: N2YO · Heavens-Above · Gunter

§ Orbital elements

Epoch: 2026-09-10T04:54:13.807872Z

Period
98.37 min
Inclination
97.9877°
Eccentricity
0.0009346
Mean motion
14.63806479 rev/d
Perigee alt
674.3 km
Apogee alt
687.5 km
Semi-major
7,059.0 km
B*
6.6366e-5
RAAN
319.9386°
Arg perigee
238.8529°
Mean anomaly
121.1758°
Rev number
63,735

§ Raw data

SJ-11-071 40261U 14059A   26253.20432648  .00000300  00000+0  66366-4 0  99922 40261  97.9877 319.9386 0009346 238.8529 121.1758 14.63806479637357

JSON: /api/v1/satellites/40261 · /tle

For live sub-satellite position, see the globe view (requires WebGL).

§ Visibility from observer

Set your observer location to see the next 7 days of passes ≥ 10°. The values pass through the URL so the page stays shareable.

No JS? Fill the form by hand. The geolocation button needs JavaScript.